Location: East Irvine
(33.6759°N, 117.7598°W)
Time: 22:54:31
(UTC+00:00)

Intelsat 5-1 Rocket - Pass Details

Date: 15 November 2025
Orbit: 307 x 6813 km, 23.9° (Epoch: 13 December)

Event Time Altitude Azimuth Distance (km) Brightness Sun altitude
Rises 03:13:21 0° 227° (SW) 3,042 6.3 -30.2°
Reaches altitude 10° 03:15:15 10° 216° (SW) 2,479 5.5 -30.6°
Enters shadow 03:19:58 34° 160° (SSE) 2,097 4.5 -31.5°
